| time (UTC) | temp F | wind direction | speed MPH | gust MPH | rain 1hr in | rain 24hr in | rain mn in | humidity % | barometer mb |
| 20260906151556 | 62 | 66 | 2.0 | 4.0 | 0.00 | 0.03 | 0.00 | 100 | 1022.0 |
| 20260906150106 | 62 | 88 | 2.0 | 5.0 | 0.00 | 0.03 | 0.00 | 100 | 1022.2 |
| 20260906144556 | 62 | 85 | 2.0 | 6.0 | 0.00 | 0.06 | 0.00 | 100 | 1022.2 |
| 20260906143056 | 62 | 132 | 4.0 | 8.0 | 0.00 | 0.06 | 0.00 | 100 | 1022.3 |
| 20260906141617 | 62 | 77 | 4.0 | 6.0 | 0.00 | 0.06 | 0.00 | 100 | 1022.6 |
| 20260906140058 | 62 | 201 | 0.0 | 3.0 | 0.00 | 0.06 | 0.00 | 100 | 1022.8 |
| 20260906134556 | 61 | 141 | 1.0 | 4.0 | 0.00 | 0.12 | 0.00 | 100 | 1022.9 |
| 20260906133105 | 61 | 146 | 0.0 | 4.0 | 0.00 | 0.12 | 0.00 | 100 | 1022.9 |
| 20260906131606 | 61 | 121 | 3.0 | 5.0 | 0.00 | 0.12 | 0.00 | 100 | 1023.0 |
| 20260906130059 | 61 | 42 | 1.0 | 4.0 | 0.00 | 0.12 | 0.00 | 100 | 1022.9 |
| 20260906124556 | 61 | 75 | 3.0 | 6.0 | 0.00 | 0.13 | 0.00 | 100 | 1022.8 |
| 20260906123105 | 59 | 65 | 2.0 | 4.0 | 0.00 | 0.13 | 0.00 | 100 | 1022.9 |
| 20260906121556 | 58 | 123 | 1.0 | 3.0 | 0.00 | 0.13 | 0.00 | 100 | 1022.9 |
| 20260906120104 | 57 | 124 | 0.0 | 2.0 | 0.00 | 0.13 | 0.00 | 100 | 1023.0 |
| 20260906114558 | 56 | 123 | 1.0 | 3.0 | 0.00 | 0.13 | 0.00 | 100 | 1022.7 |
| 20260906113056 | 55 | 121 | 0.0 | 3.0 | 0.00 | 0.13 | 0.00 | 100 | 1022.6 |
| 20260906111556 | 55 | 120 | 2.0 | 4.0 | 0.00 | 0.13 | 0.00 | 100 | 1022.4 |
| 20260906110056 | 55 | 44 | 0.0 | 0.0 | 0.00 | 0.13 | 0.00 | 100 | 1022.5 |
| 20260906104556 | 55 | 240 | 0.0 | 0.0 | 0.00 | 0.13 | 0.00 | 100 | 1022.3 |
| 20260906103056 | 55 | 240 | 0.0 | 2.0 | 0.00 | 0.13 | 0.00 | 100 | 1021.9 |
| 20260906101558 | 55 | 239 | 0.0 | 3.0 | 0.00 | 0.13 | 0.00 | 100 | 1021.8 |
| 20260906100058 | 55 | 239 | 0.0 | 1.0 | 0.00 | 0.13 | 0.00 | 100 | 1021.7 |
| 20260906094603 | 55 | 231 | 0.0 | 2.0 | 0.00 | 0.16 | 0.00 | 100 | 1021.3 |
| 20260906093056 | 55 | 231 | 1.0 | 4.0 | 0.00 | 0.16 | 0.00 | 100 | 1021.0 |
| 20260906091556 | 55 | 224 | 1.0 | 2.0 | 0.00 | 0.16 | 0.00 | 100 | 1020.8 |
| 20260906090056 | 55 | 98 | 0.0 | 0.0 | 0.00 | 0.16 | 0.00 | 100 | 1020.6 |
| 20260906084558 | 55 | 98 | 0.0 | 0.0 | 0.00 | 0.16 | 0.00 | 100 | 1020.4 |
| 20260906083102 | 55 | 98 | 0.0 | 3.0 | 0.00 | 0.16 | 0.00 | 100 | 1020.3 |
| 20260906081556 | 55 | 113 | 0.0 | 0.0 | 0.00 | 0.16 | 0.00 | 100 | 1019.9 |
| 20260906080056 | 55 | 175 | 0.0 | 0.0 | 0.00 | 0.16 | 0.00 | 100 | 1019.9 |
| 20260906074556 | 55 | 181 | 0.0 | 0.0 | 0.00 | 0.18 | 0.00 | 100 | 1019.9 |
| 20260906073056 | 55 | 247 | 0.0 | 0.0 | 0.00 | 0.18 | 0.00 | 100 | 1019.9 |
| 20260906071557 | 55 | 246 | 0.0 | 0.0 | 0.00 | 0.18 | 0.00 | 100 | 1020.0 |
| 20260906070056 | 55 | 246 | 0.0 | 0.0 | 0.00 | 0.18 | 0.00 | 100 | 1019.9 |
| 20260906064556 | 55 | 94 | 0.0 | 0.0 | 0.00 | 0.18 | 0.00 | 100 | 1019.8 |
| 20260906063056 | 56 | 94 | 0.0 | 0.0 | 0.00 | 0.18 | 0.00 | 100 | 1019.8 |
| 20260906061556 | 56 | 78 | 0.0 | 0.0 | 0.00 | 0.18 | 0.00 | 100 | 1019.8 |
| 20260906060132 | 56 | 78 | 0.0 | 0.0 | 0.00 | 0.18 | 0.00 | 100 | 1019.7 |
| 20260906054608 | 56 | 78 | 0.0 | 0.0 | 0.00 | 0.18 | 0.00 | 100 | 1019.7 |
| 20260906053055 | 56 | 78 | 0.0 | 0.0 | 0.00 | 0.18 | 0.00 | 100 | 1019.6 |
| 20260906051558 | 56 | 78 | 0.0 | 0.0 | 0.00 | 0.18 | 0.00 | 100 | 1019.4 |
| 20260906050056 | 56 | 78 | 0.0 | 0.0 | 0.00 | 0.18 | 0.00 | 100 | 1019.3 |
| 20260906044556 | 56 | 78 | 0.0 | 0.0 | 0.00 | 0.19 | 0.00 | 100 | 1019.2 |
| 20260906043056 | 57 | 78 | 0.0 | 0.0 | 0.00 | 0.19 | 0.00 | 100 | 1019.6 |
| 20260906041558 | 57 | 77 | 0.0 | 0.0 | 0.00 | 0.19 | 0.00 | 100 | 1019.8 |
| 20260906040056 | 57 | 77 | 0.0 | 0.0 | 0.00 | 0.19 | 0.00 | 100 | 1019.8 |
| 20260906034604 | 57 | 77 | 0.0 | 0.0 | 0.00 | 0.20 | 0.00 | 100 | 1020.0 |
| 20260906033057 | 56 | 77 | 0.0 | 1.0 | 0.00 | 0.20 | 0.00 | 100 | 1020.1 |
| 20260906031557 | 56 | 77 | 0.0 | 1.0 | 0.00 | 0.20 | 0.00 | 100 | 1020.1 |
| 20260906030057 | 57 | 77 | 0.0 | 2.0 | 0.00 | 0.20 | 0.00 | 100 | 1019.9 |
| 20260906024558 | 57 | 77 | 1.0 | 4.0 | 0.00 | 0.20 | 0.20 | 100 | 1020.0 |
| 20260906023057 | 57 | 84 | 2.0 | 4.0 | 0.00 | 0.20 | 0.20 | 100 | 1019.9 |
| 20260906021601 | 57 | 85 | 0.0 | 2.0 | 0.00 | 0.20 | 0.20 | 100 | 1019.7 |
| 20260906020057 | 57 | 85 | 0.0 | 3.0 | 0.00 | 0.20 | 0.20 | 100 | 1019.6 |
| 20260906014557 | 57 | 85 | 1.0 | 3.0 | 0.00 | 0.20 | 0.20 | 100 | 1019.5 |
| 20260906013057 | 57 | 85 | 0.0 | 0.0 | 0.00 | 0.20 | 0.20 | 100 | 1019.4 |
| 20260906011557 | 57 | 85 | 0.0 | 0.0 | 0.00 | 0.20 | 0.20 | 100 | 1019.4 |
| 20260906010137 | 57 | 85 | 0.0 | 0.0 | 0.00 | 0.20 | 0.20 | 100 | 1019.3 |
| 20260906004614 | 57 | 85 | 0.0 | 0.0 | 0.00 | 0.20 | 0.20 | 100 | 1019.2 |
| 20260906003057 | 57 | 85 | 0.0 | 0.0 | 0.00 | 0.20 | 0.20 | 100 | 1019.1 |
| 20260906001603 | 57 | 85 | 0.0 | 0.0 | 0.00 | 0.20 | 0.20 | 100 | 1019.3 |
| 20260906000057 | 57 | 85 | 0.0 | 0.0 | 0.01 | 0.20 | 0.20 | 100 | 1019.2 |
| 20260905234557 | 57 | 85 | 0.0 | 1.0 | 0.01 | 0.20 | 0.20 | 100 | 1018.9 |
| 20260905233057 | 57 | 132 | 1.0 | 3.0 | 0.01 | 0.20 | 0.20 | 100 | 1018.6 |
| 20260905231557 | 57 | 210 | 1.0 | 3.0 | 0.01 | 0.20 | 0.20 | 100 | 1018.5 |
| 20260905230056 | 57 | 210 | 0.0 | 2.0 | 0.01 | 0.19 | 0.19 | 100 | 1018.0 |
| 20260905224557 | 57 | 216 | 0.0 | 2.0 | 0.01 | 0.20 | 0.19 | 100 | 1018.4 |
| 20260905223057 | 57 | 244 | 2.0 | 4.0 | 0.01 | 0.20 | 0.19 | 100 | 1018.2 |
| 20260905221600 | 57 | 81 | 0.0 | 3.0 | 0.01 | 0.20 | 0.19 | 100 | 1017.2 |
| 20260905220059 | 57 | 81 | 1.0 | 2.0 | 0.00 | 0.19 | 0.18 | 100 | 1017.4 |
| 20260905214556 | 57 | 81 | 0.0 | 2.0 | 0.01 | 0.19 | 0.18 | 100 | 1017.7 |
| 20260905213057 | 57 | 81 | 0.0 | 3.0 | 0.01 | 0.19 | 0.18 | 100 | 1017.8 |
| 20260905211604 | 57 | 80 | 0.0 | 0.0 | 0.01 | 0.19 | 0.18 | 100 | 1017.1 |
| 20260905210115 | 57 | 80 | 0.0 | 2.0 | 0.01 | 0.19 | 0.18 | 100 | 1016.8 |
| 20260905204600 | 57 | 80 | 1.0 | 3.0 | 0.00 | 0.18 | 0.17 | 100 | 1016.7 |
| 20260905203057 | 58 | 38 | 0.0 | 3.0 | 0.00 | 0.18 | 0.17 | 100 | 1016.7 |
| 20260905201557 | 58 | 35 | 0.0 | 1.0 | 0.00 | 0.18 | 0.17 | 100 | 1016.8 |
| 20260905200118 | 58 | 35 | 0.0 | 2.0 | 0.00 | 0.18 | 0.17 | 100 | 1016.8 |
| 20260905194556 | 58 | 35 | 0.0 | 2.0 | 0.00 | 0.18 | 0.17 | 100 | 1016.4 |
| 20260905193056 | 58 | 38 | 2.0 | 4.0 | 0.00 | 0.18 | 0.17 | 100 | 1015.9 |
| 20260905191556 | 58 | 54 | 0.0 | 4.0 | 0.00 | 0.18 | 0.17 | 100 | 1015.8 |
| 20260905190058 | 58 | 23 | 3.0 | 5.0 | 0.00 | 0.18 | 0.17 | 100 | 1016.2 |
| 20260905184606 | 58 | 44 | 1.0 | 4.0 | 0.00 | 0.19 | 0.17 | 100 | 1015.9 |
| 20260905183056 | 58 | 49 | 0.0 | 3.0 | 0.00 | 0.19 | 0.17 | 100 | 1016.4 |
| 20260905181557 | 58 | 46 | 1.0 | 4.0 | 0.00 | 0.19 | 0.17 | 100 | 1015.9 |
| 20260905180056 | 58 | 28 | 1.0 | 4.0 | 0.00 | 0.19 | 0.17 | 100 | 1016.0 |
| 20260905180001 | 58 | 28 | 1.0 | 4.0 | 0.00 | 0.19 | 0.17 | 100 | 1016.0 |
| 20260905174603 | 58 | 20 | 2.0 | 4.0 | 0.00 | 0.19 | 0.17 | 100 | 1015.8 |
| 20260905173056 | 58 | 116 | 2.0 | 3.0 | 0.00 | 0.19 | 0.17 | 100 | 1016.0 |
| 20260905171557 | 58 | 266 | 0.0 | 3.0 | 0.00 | 0.19 | 0.17 | 100 | 1016.2 |
| 20260905170057 | 58 | 68 | 1.0 | 3.0 | 0.00 | 0.19 | 0.17 | 100 | 1016.5 |
| 20260905164556 | 58 | 68 | 1.0 | 4.0 | 0.00 | 0.19 | 0.17 | 100 | 1016.4 |
| 20260905163057 | 58 | 20 | 1.0 | 5.0 | 0.00 | 0.19 | 0.17 | 100 | 1016.5 |
| 20260905161556 | 58 | 79 | 3.0 | 5.0 | 0.00 | 0.19 | 0.17 | 100 | 1016.3 |
| 20260905160057 | 58 | 20 | 3.0 | 7.0 | 0.00 | 0.19 | 0.17 | 100 | 1016.6 |
| 20260905154602 | 59 | 47 | 2.0 | 5.0 | 0.00 | 0.19 | 0.17 | 100 | 1016.3 |
| 20260905153056 | 59 | 40 | 3.0 | 5.0 | 0.00 | 0.19 | 0.17 | 100 | 1016.8 |